Location: Absher
(46.5583°N, 107.9840°W)
Time: 17:00:33
(UTC+00:00)

SEEDS - Pass Details

Date: 31 March 2023
Orbit: 568 x 587 km, 97.7° (Epoch: 04 June)

Event Time Altitude Azimuth Distance (km) Brightness Sun altitude
Rises 10:52:48 0° 18° (NNE) 2,836 ? -20.4°
Reaches altitude 10° 10:55:02 10° 24° (NNE) 1,931 ? -20.1°
Maximum altitude 10:59:06 49° 99° (E) 772 ? -19.5°
Enters shadow 11:02:47 12° 173° (S) 1,778 ? -18.9°
